Location: Hawks Ness
(60.2333°N, 1.1667°W)
Time: 20:41:28
(UTC+00:00)

Cosmos 2058 Rocket - Pass Details

Date: 22 October 2019
Orbit: 611 x 638 km, 82.5° (Epoch: 17 November)

Event Time Altitude Azimuth Distance (km) Brightness Sun altitude
Rises 04:15:28 0° 346° (NNW) 2,905 6.5 -21.0°
Reaches altitude 10° 04:17:42 10° 348° (NNW) 1,998 5.7 -20.7°
Maximum altitude 04:22:08 76° 74° (ENE) 649 3.2 -20.2°
Drops below altitude 10° 04:26:34 10° 161° (SSE) 2,000 5.7 -19.7°
Sets 04:28:49 0° 163° (SSE) 2,907 6.6 -19.4°
